Location: Pedholt
(56.0260°N, 10.2097°E)
Time: 00:24:01
(UTC+00:00)

A-11 Canister half - Pass Details

Date: 30 July 2021
Orbit: 1515 x 1685 km, 47.2° (Epoch: 19 September)

Event Time Altitude Azimuth Distance (km) Brightness Sun altitude
Rises 17:36:18 0° 230° (SW) 4,815 12.2 13.7°
Reaches altitude 10° 17:39:34 10° 224° (SW) 3,854 11.6 13.2°
Maximum altitude 17:48:37 43° 158° (SSE) 2,202 9.7 12.0°
Drops below altitude 10° 17:57:54 10° 92° (E) 3,949 10.6 10.7°
Sets 18:01:17 0° 86° (E) 4,943 11.1 10.3°
